Total_Precipitation_Accumulation
1.16 1.10 0.98 0.78 0.61 0.51 0.44 0.37 0.32 0.31 0.37 0.39 0.43 0.47 0.52 0.50 0.39 0.29 0.24 0.23 0.19 0.20 0.29 0.27 0.37 0.33 0.30 0.31 0.28 0.29 0.28 0.30 0.34 0.24 0.17 0.08 0.03 0.04 0.05 0.10 0.17 0.24 0.36
1.32 1.27 1.21 1.09 0.82 0.73 0.75 0.76 0.71 0.76 0.73 0.78 0.89 0.94 0.97 0.88 0.74 0.60 0.47 0.41 0.38 0.32 0.32 0.41 0.46 0.45 0.45 0.42 0.38 0.35 0.32 0.32 0.44 0.41 0.31 0.26 0.21 0.15 0.07 0.09 0.13 0.23 0.40
0.76 1.01 1.09 1.24 1.16 1.04 0.97 1.01 1.14 1.21 1.17 1.20 1.25 1.23 1.32 1.31 1.11 0.91 0.71 0.58 0.52 0.45 0.45 0.49 0.57 0.55 0.53 0.51 0.50 0.44 0.40 0.38 0.45 0.54 0.55 0.52 0.46 0.30 0.09 0.07 0.12 0.21 0.30
0.45 0.71 0.89 1.02 1.24 1.24 1.16 1.25 1.35 1.42 1.43 1.44 1.38 1.34 1.33 1.27 1.14 0.94 0.69 0.57 0.54 0.54 0.54 0.53 0.58 0.64 0.64 0.63 0.57 0.57 0.56 0.47 0.42 0.58 0.71 0.68 0.61 0.48 0.28 0.18 0.14 0.17 0.22
0.44 0.66 0.84 0.98 1.01 1.02 1.18 1.43 1.58 1.66 1.63 1.49 1.32 1.30 1.24 1.21 1.16 0.97 0.77 0.68 0.63 0.57 0.52 0.59 0.70 0.78 0.81 0.75 0.65 0.65 0.67 0.59 0.52 0.56 0.61 0.63 0.63 0.61 0.53 0.38 0.33 0.22 0.14
0.61 0.76 0.88 0.98 0.96 0.99 1.20 1.42 1.52 1.55 1.51 1.45 1.40 1.40 1.37 1.31 1.21 1.05 0.91 0.76 0.62 0.50 0.48 0.53 0.62 0.72 0.78 0.78 0.73 0.68 0.68 0.64 0.59 0.57 0.63 0.69 0.66 0.75 0.74 0.50 0.42 0.32 0.13
0.85 0.92 0.97 0.97 1.01 1.06 1.15 1.20 1.23 1.21 1.21 1.24 1.30 1.29 1.23 1.17 1.11 0.99 0.86 0.71 0.60 0.50 0.49 0.46 0.43 0.47 0.56 0.68 0.77 0.72 0.71 0.66 0.62 0.61 0.63 0.68 0.68 0.75 0.77 0.64 0.49 0.38 0.21
1.14 1.26 1.25 1.19 1.12 1.05 1.00 0.95 0.93 0.91 0.89 0.92 0.97 0.96 0.90 0.86 0.83 0.79 0.74 0.69 0.63 0.57 0.51 0.43 0.35 0.33 0.36 0.47 0.63 0.67 0.71 0.68 0.61 0.56 0.55 0.53 0.51 0.54 0.65 0.77 0.69 0.51 0.41
0.88 1.14 1.15 1.08 0.99 0.87 0.75 0.66 0.59 0.54 0.50 0.50 0.50 0.52 0.52 0.54 0.53 0.52 0.52 0.52 0.49 0.43 0.38 0.35 0.32 0.31 0.31 0.33 0.39 0.52 0.61 0.66 0.61 0.59 0.55 0.51 0.47 0.45 0.49 0.65 0.77 0.70 0.63
0.71 0.74 0.76 0.79 0.79 0.73 0.63 0.51 0.38 0.29 0.25 0.22 0.20 0.19 0.18 0.18 0.18 0.18 0.18 0.19 0.19 0.18 0.18 0.19 0.19 0.20 0.22 0.25 0.33 0.42 0.54 0.60 0.59 0.55 0.52 0.54 0.51 0.52 0.49 0.51 0.67 0.77 0.84
0.50 0.47 0.46 0.48 0.55 0.57 0.50 0.39 0.29 0.21 0.15 0.10 0.07 0.06 0.05 0.04 0.04 0.04 0.03 0.03 0.03 0.04 0.04 0.05 0.06 0.08 0.08 0.09 0.13 0.21 0.33 0.44 0.48 0.44 0.45 0.51 0.55 0.61 0.49 0.53 0.62 0.72 0.88
0.29 0.27 0.28 0.28 0.30 0.30 0.29 0.26 0.19 0.16 0.09 0.04 0.02 0.01 0.01 0.01 0.01 0.01 0.00 0.00 0.00 0.00 0.01 0.01 0.01 0.02 0.02 0.04 0.05 0.08 0.18 0.35 0.45 0.54 0.58 0.59 0.65 0.69 0.58 0.59 0.71 0.87 1.00
0.24 0.20 0.18 0.19 0.19 0.19 0.21 0.20 0.18 0.17 0.08 0.04 0.02 0.01 0.01 0.01 0.02 0.01 0.01 0.00 0.00 0.00 0.00 0.00 0.00 0.01 0.01 0.02 0.03 0.04 0.08 0.19 0.33 0.43 0.57 0.67 0.75 0.80 0.78 0.72 0.82 0.98 1.19
0.20 0.17 0.14 0.11 0.11 0.13 0.17 0.18 0.20 0.14 0.06 0.05 0.05 0.03 0.02 0.02 0.02 0.01 0.01 0.00 0.00 0.00 0.00 0.01 0.01 0.01 0.01 0.02 0.03 0.04 0.06 0.09 0.17 0.24 0.29 0.36 0.46 0.54 0.67 0.72 0.76 0.84 1.05
0.11 0.10 0.08 0.08 0.06 0.07 0.10 0.13 0.16 0.12 0.08 0.07 0.07 0.05 0.04 0.04 0.03 0.02 0.01 0.00 0.00 0.00 0.00 0.00 0.00 0.00 0.00 0.00 0.01 0.03 0.04 0.05 0.09 0.12 0.13 0.15 0.17 0.19 0.24 0.33 0.49 0.60 0.75
0.08 0.07 0.08 0.09 0.07 0.05 0.07 0.11 0.14 0.13 0.11 0.11 0.11 0.10 0.08 0.06 0.04 0.03 0.02 0.01 0.01 0.00 0.00 0.00 0.00 0.00 0.00 0.00 0.00 0.01 0.02 0.03 0.05 0.06 0.07 0.08 0.10 0.09 0.09 0.11 0.17 0.28 0.46
0.06 0.06 0.08 0.08 0.07 0.06 0.08 0.10 0.12 0.12 0.12 0.14 0.14 0.13 0.12 0.10 0.07 0.04 0.03 0.02 0.02 0.01 0.01 0.00 0.00 0.00 0.00 0.00 0.00 0.00 0.00 0.01 0.01 0.02 0.02 0.02 0.03 0.04 0.04 0.07 0.09 0.11 0.13
0.05 0.07 0.08 0.07 0.08 0.08 0.09 0.11 0.14 0.18 0.21 0.22 0.21 0.19 0.15 0.11 0.09 0.07 0.06 0.06 0.04 0.03 0.02 0.01 0.01 0.01 0.00 0.00 0.00 0.00 0.00 0.00 0.00 0.00 0.00 0.00 0.00 0.01 0.02 0.03 0.05 0.05 0.04
0.06 0.08 0.11 0.11 0.13 0.13 0.12 0.15 0.19 0.24 0.29 0.28 0.25 0.21 0.18 0.15 0.12 0.12 0.10 0.09 0.08 0.06 0.04 0.02 0.02 0.01 0.00 0.00 0.00 0.00 0.00 0.00 0.00 0.00 0.00 0.00 0.00 0.00 0.00 0.02 0.05 0.04 0.01
0.14 0.21 0.25 0.28 0.28 0.28 0.23 0.22 0.23 0.26 0.29 0.29 0.26 0.22 0.21 0.21 0.19 0.16 0.14 0.11 0.10 0.09 0.07 0.04 0.03 0.02 0.01 0.00 0.00 0.00 0.00 0.00 0.00 0.00 0.00 0.00 0.00 0.00 0.00 0.01 0.04 0.05 0.03
0.18 0.26 0.34 0.46 0.52 0.55 0.49 0.41 0.34 0.31 0.29 0.26 0.25 0.24 0.24 0.23 0.18 0.14 0.13 0.13 0.13 0.12 0.11 0.08 0.06 0.05 0.02 0.01 0.00 0.00 0.00 0.00 0.00 0.00 0.00 0.00 0.00 0.00 0.00 0.00 0.01 0.00 0.01
0.11 0.17 0.31 0.42 0.49 0.57 0.64 0.63 0.56 0.41 0.32 0.26 0.25 0.24 0.26 0.25 0.22 0.19 0.15 0.13 0.14 0.16 0.15 0.12 0.09 0.07 0.05 0.02 0.01 0.00 0.00 0.00 0.00 0.01 0.00 0.00 0.00 0.00 0.00 0.00 0.00 0.00 0.00
0.08 0.13 0.21 0.31 0.33 0.33 0.41 0.53 0.50 0.42 0.40 0.36 0.34 0.30 0.28 0.30 0.28 0.27 0.25 0.19 0.15 0.14 0.14 0.12 0.10 0.09 0.08 0.06 0.03 0.01 0.00 0.00 0.01 0.01 0.00 0.00 0.00 0.00 0.00 0.00 0.00 0.00 0.00
0.11 0.13 0.18 0.22 0.23 0.24 0.25 0.31 0.29 0.27 0.32 0.39 0.41 0.37 0.33 0.32 0.29 0.31 0.29 0.26 0.24 0.21 0.19 0.17 0.14 0.12 0.11 0.11 0.10 0.07 0.04 0.02 0.02 0.01 0.01 0.01 0.00 0.00 0.00 0.00 0.00 0.00 0.00
0.18 0.17 0.18 0.19 0.21 0.22 0.22 0.19 0.16 0.17 0.23 0.26 0.28 0.30 0.32 0.33 0.32 0.31 0.28 0.26 0.24 0.23 0.24 0.21 0.17 0.14 0.13 0.13 0.13 0.12 0.10 0.07 0.05 0.03 0.03 0.03 0.03 0.02 0.01 0.01 0.01 0.00 0.00
0.10 0.08 0.08 0.08 0.08 0.10 0.13 0.12 0.08 0.09 0.15 0.18 0.21 0.20 0.21 0.24 0.25 0.23 0.22 0.18 0.16 0.15 0.13 0.12 0.11 0.11 0.09 0.08 0.08 0.08 0.09 0.08 0.07 0.07 0.06 0.06 0.05 0.05 0.03 0.03 0.03 0.02 0.02